Zurück zum Katalog

FENGYUN 1C DEB

AktivSSO
NORAD 31944·DEBRIS·🇨🇳 China

Gestartet May 10, 1999 von Taiyuan Satellite Launch Center

Loading…

Nächste Überflüge (nächste 24 Stunden)

TLE

AktuellSource: Space-Track

Epoche: Sep 14, 2026, 06:41 UTC

1 31944U 99025CMV 26257.27881082  .00000521  00000-0  27754-3 0  9990
2 31944  99.2357  57.6444 0149880 312.3513 169.0872 14.12440761667996

Verfolge FENGYUN 1C DEB in Echtzeit mit AllMySat

Download on the App Store